WB4ME Weather Reports


time (UTC)temp
C
wind
direction
speed
KPH
gust
KPH
rain 1hr
cm
rain 24hr
cm
rain mn
cm
humidity
%
barometer
mb
20260504151004 10 215 1.6 17.7 0.00 0.00 0.00 82 1027.3
20260504141005 10 161 3.2 14.5 0.00 0.00 0.00 74 1027.3
20260504082004 2 15 0.0 1.6 0.00 0.00 0.00 88 1027.3
20260504081004 2 89 0.0 0.0 0.00 0.00 0.00 88 1027.3
20260504045004 5 104 0.0 0.0 0.00 0.00 0.00 76 1027.3
20260504044004 5 104 0.0 0.0 0.00 0.00 0.00 75 1027.3
20260504043004 5 104 0.0 0.0 0.00 0.00 0.00 73 1027.3
20260504042005 5 106 0.0 1.6 0.00 0.00 0.00 72 1027.3
20260504040007 6 198 0.0 0.0 0.00 0.00 0.00 69 1027.3
20260504035005 6 198 0.0 0.0 0.00 0.00 0.00 68 1027.3
20260504033004 6 198 0.0 0.0 0.00 0.00 0.00 67 1027.3
20260504032004 7 198 0.0 0.0 0.00 0.00 0.00 65 1027.3
20260504031004 7 198 0.0 0.0 0.00 0.00 0.00 66 1027.3
20260504030004 7 198 0.0 0.0 0.00 0.00 0.00 65 1027.3
20260504025004 7 198 0.0 0.0 0.00 0.00 0.00 63 1027.3
20260504023004 7 198 0.0 0.0 0.00 0.00 0.00 62 1027.3
20260504020004 8 213 0.0 0.0 0.00 0.00 0.00 57 1027.3
20260504015004 9 206 0.0 0.0 0.00 0.00 0.00 57 1027.3
20260504014004 9 206 0.0 0.0 0.00 0.00 0.00 55 1027.3
20260504012003 10 204 0.0 0.0 0.00 0.00 0.00 53 1027.3
20260504010004 10 206 0.0 1.6 0.00 0.00 0.00 52 1027.3
20260504005004 11 167 0.0 4.8 0.00 0.00 0.00 51 1027.3
20260504004004 11 139 0.0 0.0 0.00 0.00 0.00 50 1027.3
20260504003004 11 197 0.0 1.6 0.00 0.00 0.00 48 1027.3
20260504002003 12 226 0.0 3.2 0.00 0.00 0.00 47 1027.3
20260504001005 12 215 3.2 8.0 0.00 0.00 0.00 46 1027.3
20260504000004 12 220 3.2 11.3 0.00 0.00 0.00 44 1027.3
20260503235004 12 226 1.6 6.4 0.00 0.00 0.00 44 1027.3
20260503233004 13 253 4.8 11.3 0.00 0.00 0.00 42 1027.3
20260503232004 13 226 4.8 17.7 0.00 0.00 0.00 40 1027.3
20260503231003 13 243 11.3 17.7 0.00 0.00 0.00 39 1027.3
20260503230004 13 230 17.7 17.7 0.00 0.00 0.00 37 1027.3
20260503225004 14 224 9.7 16.1 0.00 0.00 0.00 37 1027.3
20260503224005 14 218 6.4 19.3 0.00 0.00 0.00 36 1027.3
20260503223003 14 221 6.4 24.1 0.00 0.00 0.00 34 1027.3
20260503221003 14 223 16.1 20.9 0.00 0.00 0.00 36 1027.3
20260503220005 14 219 6.4 19.3 0.00 0.00 0.00 36 1027.3
20260503215004 14 242 8.0 17.7 0.00 0.00 0.00 36 1027.3
20260503214004 14 243 11.3 19.3 0.00 0.00 0.00 37 1027.3
20260503213004 14 188 6.4 17.7 0.00 0.00 0.00 37 1027.3
20260503212004 14 219 9.7 20.9 0.00 0.00 0.00 37 1027.3
20260503211003 14 226 17.7 19.3 0.00 0.00 0.00 37 1027.3
20260503210005 14 220 11.3 20.9 0.00 0.00 0.00 38 1027.3
20260503205004 14 210 14.5 19.3 0.00 0.00 0.00 38 1027.3
20260503204003 14 225 8.0 17.7 0.00 0.00 0.00 38 1027.3
20260503203003 14 227 9.7 22.5 0.00 0.00 0.00 39 1027.3
20260503202005 14 266 3.2 14.5 0.00 0.00 0.00 38 1027.3
20260503201003 14 207 11.3 22.5 0.00 0.00 0.00 39 1027.3
20260503200005 14 191 4.8 14.5 0.00 0.00 0.00 39 1027.3
20260503194004 13 169 8.0 19.3 0.00 0.00 0.00 35 1027.3
20260503193003 14 243 4.8 12.9 0.00 0.00 0.00 37 1027.3
20260503191006 14 134 12.9 17.7 0.00 0.00 0.00 39 1027.3
20260503190005 14 289 0.0 9.7 0.00 0.00 0.00 34 1027.3
20260503185004 13 231 1.6 17.7 0.00 0.00 0.00 33 1027.3
20260503184004 13 219 1.6 17.7 0.00 0.00 0.00 33 1027.3
20260503183004 13 15 0.0 6.4 0.00 0.00 0.00 35 1027.3
20260503182004 13 189 0.0 22.5 0.00 0.00 0.00 39 1027.3
20260503181004 13 252 6.4 14.5 0.00 0.00 0.00 36 1027.3
20260503180005 13 224 4.8 14.5 0.00 0.00 0.00 39 1027.3
20260503175004 12 129 0.0 9.7 0.00 0.00 0.00 41 1027.3
20260503174005 12 213 8.0 16.1 0.00 0.00 0.00 41 1027.3
20260503173004 12 223 8.0 14.5 0.00 0.00 0.00 37 1027.3
20260503172004 12 257 6.4 16.1 0.00 0.00 0.00 39 1027.3
20260503171004 12 252 0.0 11.3 0.00 0.00 0.00 37 1027.3